{"data":{"norad_id":53218,"intl_designator":"2022-084AF","name":"STARLINK-4384","alt_names":[],"object_type":"PAYLOAD","status":"ACTIVE","operator":null,"country":"US","launch_date":"2022-07-22","launch_site_code":"AFWTR","launch_vehicle":null,"mission":null,"orbit_class":"UNKNOWN","rcs_meters":null,"size_class":null,"mass_kg":null,"dimensions":null,"purposes":["comms"],"wikipedia_slug":null,"has_3d_model":false,"image_url":null,"decayed_at":null,"tle_current":{"epoch":"2026-09-20T04:00:03.000096Z","epoch_age_seconds":101066,"freshness":"FRESH","line1":"1 53218U 22084AF  26263.16670139  .00014003  00000+0  43545-3 0  9998","line2":"2 53218  97.2845 318.8566 0001748  84.0191  97.3232 15.33430841  5830","mean_motion":15.33430841,"eccentricity":0.0001748,"inclination_deg":97.2845,"raan_deg":318.8566,"arg_perigee_deg":84.0191,"mean_anomaly_deg":97.3232,"bstar":0.00043545,"rev_number":583,"period_min":93.907071743837,"perigee_km":464.38901936619,"apogee_km":466.78158468297,"semimajor_km":6843.7223020246,"source":"CELESTRAK","updated_at":"2026-09-20T09:00:40.194249Z"}}}